Location: Arboyeti
(42.1122°N, 44.6017°E)
Time: 04:58:51
(UTC+00:00)

USA 234 - Pass Details

Date: 19 April 2021
Orbit: 1102 x 1105 km, 123.0° (Epoch: 18 April)

Event Time Altitude Azimuth Distance (km) Brightness Sun altitude
Rises 22:04:26 0° 53° (NE) 3,925 6.9 -34.4°
Reaches altitude 10° 22:07:10 10° 62° (ENE) 2,964 6.0 -34.3°
Enters shadow 22:11:41 33° 101° (E) 1,747 4.3 -34.0°
